This is the latest recevied weather packets stored in our database for station/object OK1LPD-6. If no packets are shown the sender has not sent any weather packets the latest 10 day(s).
| Time | Temp. | Humidity | Pressure | Rain* | Wind** | Luminosity | Snow |
|---|---|---|---|---|---|---|---|
| 1777839905 | 21.67° C | 35% | 1012.2 hPa | 0 mm | - | - | - |
| 1777839326 | 21.67° C | 34% | 1012.2 hPa | 0 mm | - | - | - |
| 1777838705 | 21.67° C | 34% | 1012.2 hPa | 0 mm | - | - | - |
| 1777838105 | 21.67° C | 33% | 1012.4 hPa | 0 mm | - | - | - |
| 1777837523 | 22.22° C | 33% | 1012.5 hPa | 0 mm | - | - | - |
| 1777836905 | 22.22° C | 33% | 1012.3 hPa | 0 mm | - | - | - |
| 1777836306 | 22.22° C | 30% | 1012.4 hPa | 0 mm | - | - | - |
| 1777835727 | 22.78° C | 30% | 1012.2 hPa | 0 mm | - | - | - |
| 1777835106 | 22.78° C | 30% | 1012.2 hPa | 0 mm | - | - | - |
| 1777834506 | 22.78° C | 30% | 1012.2 hPa | 0 mm | - | - | - |
| 1777833924 | 22.78° C | 30% | 1011.9 hPa | 0 mm | - | - | - |
| 1777833306 | 23.33° C | 29% | 1011.8 hPa | 0 mm | - | - | - |
| 1777832706 | 23.33° C | 28% | 1011.8 hPa | 0 mm | - | - | - |
| 1777832126 | 23.33° C | 28% | 1011.6 hPa | 0 mm | - | - | - |
| 1777831507 | 23.89° C | 26% | 1011.5 hPa | 0 mm | - | - | - |
| 1777830907 | 24.44° C | 25% | 1011.4 hPa | 0 mm | - | - | - |
| 1777830325 | 24.44° C | 25% | 1011.7 hPa | 0 mm | - | - | - |
| 1777829707 | 25° C | 24% | 1011.4 hPa | 0 mm | - | - | - |
| 1777829107 | 25.56° C | 23% | 1011.5 hPa | 0 mm | - | - | - |
| 1777828527 | 26.11° C | 23% | 1011.4 hPa | 0 mm | - | - | - |
| 1777827906 | 26.67° C | 22% | 1011.4 hPa | 0 mm | - | - | - |
| 1777827307 | 27.22° C | 21% | 1011.3 hPa | 0 mm | - | - | - |
| 1777826725 | 28.33° C | 20% | 1011.5 hPa | 0 mm | - | - | - |
| 1777826107 | 28.33° C | 20% | 1011.3 hPa | 0 mm | - | - | - |
| 1777825507 | 28.33° C | 20% | 1011.4 hPa | 0 mm | - | - | - |
* Rain latest hour (hover to see other rain measurements)
** Current wind speed in m/s (hover to see current wind gust speed)